This demonstration page uses our WeatherBlox Daily Observations layout. Learn more.

Left ArrowRight Arrow

34.74481, -87.66753

Hourly Observations for April 25, 2015

Temp ( °F °C ) Dew Point ( °F °C ) Humidity (%) Winds ( mph kmh ) Pressure ( in mb ) Visibility ( mi km ) Precip ( " mm )
12:53 am 00:53 Cloudy with Light Rain 56 13.3 53 11.7 90 90 VRB 3 6 29.86 1011 8 13 0.07 1.78
1:53 am 01:53 Cloudy with Rain 56 13.3 54 12.2 93 93 ENE 5 7 29.84 1010 5 8 0.14 3.56
2:45 am 02:45 Cloudy with Heavy Rain 57 13.9 54 12.2 90 90 S 3 6 29.83 1010 2 3 0.19 4.83
2:53 am 02:53 Cloudy with Heavy Rain 57 13.9 54 12.2 90 90 SE 3 6 29.83 1010 3 4 0.25 6.35
3:03 am 03:03 Cloudy with Heavy Rain 57 13.9 54 12.2 90 90 SSE 6 9 29.83 1010 3 5 0.05 1.27
3:32 am 03:32 Cloudy with Heavy Rain 57 13.9 54 12.2 90 90 S 5 7 29.83 1010 3 4 0.18 4.57
3:44 am 03:44 Cloudy with Rain 57 13.9 54 12.2 90 90 SSE 6 9 29.83 1010 3 5 0.22 5.59
3:53 am 03:53 Cloudy with Rain 57 13.9 54 12.2 90 90 ESE 6 9 29.83 1010 4 6 0.24 6.10
4:53 am 04:53 Mostly Cloudy 58 14.4 56 13.3 93 93 SE 13 20 29.72 1007 7 11 0.03 0.76
5:53 am 05:53 Clear 60 15.6 57 13.9 90 90 SSE 9 15 29.71 1006 10 16 0.00 0.00
6:53 am 06:53 Sunny 60 15.6 57 13.9 90 90 SSE 6 9 29.72 1006 10 16 0.00 0.00
7:53 am 07:53 Sunny 64 17.8 60 15.6 87 87 S 12 19 29.72 1007 10 16 0.00 0.00
8:12 am 08:12 Mostly Cloudy 64 17.8 60 15.6 87 87 S 10 17 29.74 1007 10 16 0.00 0.00
8:33 am 08:33 Cloudy 65 18.3 60 15.6 84 84 S 13 20 29.74 1007 10 16 0.00 0.00
8:53 am 08:53 Cloudy 65 18.3 61 16.1 87 87 S 9 15 29.72 1007 10 16 0.00 0.00
9:12 am 09:12 Partly Cloudy 67 19.4 61 16.1 81 81 SSW 12 19 29.74 1007 10 16 0.00 0.00
9:53 am 09:53 Sunny 71 21.7 63 17.2 76 76 WSW 9 15 29.70 1006 10 16 0.00 0.00
10:53 am 10:53 Mostly Cloudy 73 22.8 64 17.8 74 74 W 12 19 29.69 1006 10 16 0.00 0.00
11:53 am 11:53 Mostly Cloudy 74 23.3 65 18.3 74 74 WSW 13 20 29.67 1005 10 16 0.00 0.00
12:53 pm 12:53 Mostly Cloudy 75 23.9 65 18.3 71 71 WSW 16 26 29.66 1005 10 16 0.00 0.00
1:04 pm 13:04 Partly Cloudy 75 23.9 65 18.3 71 71 WSW 14 22 29.68 1005 10 16 0.00 0.00
1:53 pm 13:53 Mostly Sunny 76 24.4 66 18.9 72 72 SW 16 26 29.66 1004 10 16 0.00 0.00
2:53 pm 14:53 Sunny 75 23.9 65 18.3 71 71 SW 10 17 29.63 1003 10 16 0.00 0.00
3:42 pm 15:42 Mostly Cloudy 75 23.9 66 18.9 74 74 WSW 14 22 29.62 1003 10 16 0.00 0.00
3:53 pm 15:53 Mostly Cloudy 76 24.4 67 19.4 74 74 SW 13 20 29.61 1003 10 16 0.00 0.00
4:33 pm 16:33 Mostly Cloudy 77 25 66 18.9 69 69 SW 16 26 29.62 1003 10 16 0.00 0.00
4:53 pm 16:53 Partly Cloudy 78 25.6 66 18.9 67 67 SW 13 20 29.60 1002 10 16 0.00 0.00
5:53 pm 17:53 Sunny 78 25.6 65 18.3 64 64 SW 15 24 29.57 1001 10 16 0.00 0.00
6:53 pm 18:53 Sunny 75 23.9 65 18.3 71 71 SW 10 17 29.56 1001 10 16 0.00 0.00
7:53 pm 19:53 Clear 73 22.8 65 18.3 76 76 SW 8 13 29.57 1001 10 16 0.00 0.00
8:53 pm 20:53 Clear 71 21.7 65 18.3 81 81 SW 8 13 29.58 1002 10 16 0.00 0.00
9:53 pm 21:53 Clear 71 21.7 66 18.9 84 84 SW 8 13 29.59 1002 9 14 0.00 0.00
10:53 pm 22:53 Mostly Cloudy 71 21.7 67 19.4 87 87 WNW 8 13 29.61 1003 9 14 0.00 0.00
11:53 pm 23:53 Clear 71 21.7 66 18.9 84 84 WSW 9 15 29.62 1003 9 14 0.00 0.00

Powered by AerisWeather